This is the latest recevied weather packets stored in our database for station/object K7KAZ. If no packets are shown the sender has not sent any weather packets the latest 10 day(s).
| Time | Temp. | Humidity | Pressure | Rain* | Wind** | Luminosity | Snow |
|---|---|---|---|---|---|---|---|
| 1777497577 | 30° C | 15% | 1015.3 hPa | 0 mm | - | 689 W/m² | - |
| 1777497273 | 28.89° C | 15% | 1015.2 hPa | 0 mm | - | 705 W/m² | - |
| 1777496970 | 28.33° C | 16% | 1015 hPa | 0 mm | - | 714 W/m² | - |
| 1777496668 | 28.89° C | 16% | 1015.3 hPa | 0 mm | - | 650 W/m² | - |
| 1777496364 | 28.89° C | 15% | 1015.3 hPa | 0 mm | - | 725 W/m² | - |
| 1777496060 | 28.89° C | 15% | 1015.5 hPa | 0 mm | - | 504 W/m² | - |
| 1777495756 | 28.89° C | 16% | 1015.3 hPa | 0 mm | - | 729 W/m² | - |
| 1777495452 | 28.33° C | 15% | 1015.6 hPa | 0 mm | - | 756 W/m² | - |
| 1777495149 | 28.89° C | 16% | 1015.5 hPa | 0 mm | - | 787 W/m² | - |
| 1777494846 | 29.44° C | 16% | 1015.9 hPa | 0 mm | - | 599 W/m² | - |
| 1777494543 | 28.89° C | 16% | 1015.7 hPa | 0 mm | - | 804 W/m² | - |
| 1777494241 | 28.89° C | 16% | 1015.7 hPa | 0 mm | - | 664 W/m² | - |
| 1777493937 | 28.33° C | 15% | 1015.9 hPa | 0 mm | - | 712 W/m² | - |
| 1777493635 | 28.33° C | 16% | 1016 hPa | 0 mm | - | 707 W/m² | - |
| 1777493332 | 28.89° C | 16% | 1016 hPa | 0 mm | - | 532 W/m² | - |
| 1777493029 | 28.33° C | 17% | 1016.3 hPa | 0 mm | - | 635 W/m² | - |
| 1777492725 | 28.33° C | 17% | 1016.2 hPa | 0 mm | - | 685 W/m² | - |
| 1777492425 | 28.33° C | 17% | 1016.2 hPa | 0 mm | - | 751 W/m² | - |
| 1777492123 | 27.78° C | 17% | 1016.3 hPa | 0 mm | - | 732 W/m² | - |
| 1777491820 | 27.78° C | 16% | 1016.4 hPa | 0 mm | - | 765 W/m² | - |
| 1777491516 | 27.78° C | 17% | 1016.4 hPa | 0 mm | - | 790 W/m² | - |
| 1777491214 | 27.78° C | 17% | 1016.7 hPa | 0 mm | - | 754 W/m² | - |
| 1777490909 | 27.78° C | 17% | 1016.6 hPa | 0 mm | - | 776 W/m² | - |
| 1777490606 | 27.78° C | 17% | 1016.5 hPa | 0 mm | - | 708 W/m² | - |
| 1777490302 | 28.33° C | 17% | 1016.9 hPa | 0 mm | - | 762 W/m² | - |
* Rain latest hour (hover to see other rain measurements)
** Current wind speed in m/s (hover to see current wind gust speed)